Krakow International Airport

Airport
ICAO code: 
EPKK
IATA Code: 
KRK
Summary
ICAO Region: 
EUR
Territory: 
Location: 
Balice, Lesser Poland
Serving: 
Krakow
Elevation: 
791 ft
Coordinates: 
Aerial View: 
50° 4' 40" N, 19° 47' 5" E
Metar
Observation
EPKK 170400Z 24017KT 9999 -SNRA BKN015 OVC023 02/M00 Q1015
Station
Krakow
Date/Time
2022-01-17 04:00:00
Wind direction
240°
Wind speed
17 kts
Lowest cloud amount
broken clouds
Temperature
2°C
Dew point
-0°C
Humidity
86%
QNH
1015 hPa
Weather condition
rain

International airport serving Krakow, Poland.

Climatology

Temperate Marine climate/Oceanic climate (Köppen climate classification Cfb) - Moderately cool summer and comparatively warm winter with a temperature range of only 14°C.

Krakow is one of the easternmost localities in Europe to have an oceanic climate. Krakow lies near the Tatra Mountains, and there is often a Föhn wind, when the temperature rises rapidly, and even in winter reaches to 20°C.

Runways

Designator Length Width Surface Rops
7/25 2550 60 CON Yes/Yes
Airport map: 
Aerial View: 

SKYbrary Partners:

Safety knowledge contributed by: